THORAD AGENA D DEB, 4733

Orbit data source: Space-Track

THORAD AGENA D DEB, 4733 is space debris in SSO originally from a launch on Wed, 08 Apr 1970 UTC launched from the Air Force Western Test Range (AFWTR). Debris objects in space refer to the collection of defunct objects orbiting the Earth. Examples of debris include non-operational satellites, rocket bodies, and fragments generated from explosions, collisions, or faulty payload assembly.

Loading next visibility...
Identifier
4733, 1970-025CG
Orbit
SSO
Country
Flag of USUS
Related business
Manufacturer
Unknown
Mission
Spacecraft
Bus & Motor
Unknown
Mass
Unknown
Launch date (UTC)
1970-04-08 (56 years ago)
Launch vehicle
Unknown
Launch site
Air Force Western Test Range (AFWTR)
Object type
Payload
Rocket body
Debris
Shape & HBR
Unknown shape, 0.1 m
Radar Cross Section
Small (<0.1 m²)

Expand to show TLE details & history
Last TLE update: 15 hours ago

TLE from 15 hours ago
0 THORAD AGENA D DEB
1  4733U 70025CG  25299.39131529  .00006612  00000-0  11407-2 0  9991
2  4733  99.8989 274.5659 0093106 270.8883  88.1648 14.66097407871155
Epoch: 2025-10-26T09:23Z
TLE epoch observation values (Epoch: 2025-10-26T09:23:29.641Z)
Latitude
0.00001°
Longitude
98.68421°
Altitude
674.998 km
Speed
7.52 km/s
True Right ascension
18h 18m 15s
True Declination
0° 00' 00"
Sunlit
Object was in daylight at epoch
Visualization orbit readout
Latitude
Unknown
Longitude
Unknown
Altitude
Unknown
Speed
Unknown
Apparent Right ascension
Unknown
Apparent Declination
Unknown
Sunlit
N/A
Visualization observer readout
Local Sidereal Time
20:10:19
Azimuth
Unknown
Elevation
Unknown
Doppler factor
Unknown
Orbital elements
Apogee altitude
736.342 km
Perigee altitude
605.084 km
Semi-major axis
7,048.85 km
Eccentricity
0.00931
Inclination
99.8989°
RAAN
274.5659°
Arg. of periapsis
270.8883°
True anomaly
89.2315°
Mean anomaly
88.1648°
Eccentric anomaly
88.69812°
Mean motion
3.66746 °/min
Orbital period
98.16 mins
BSTAR
0.0011407
Loading maneuver chart data...
Computing Atmospheric mass density...

Documentation

Showing up to 5 results
|